This demonstration page uses our WeatherBlox Daily Observations layout. Learn more.

Left ArrowRight Arrow

34.02893, -84.19858

Hourly Observations for February 5, 2017

Temp ( °F °C ) Dew Point ( °F °C ) Humidity (%) Winds ( mph kmh ) Pressure ( in mb ) Visibility ( mi km ) Precip ( " mm )
12:53 am 00:53 Mostly Clear 37 2.8 11 -11.7 34 34 E 3 6 30.29 1026 10 16 0.00 0.00
1:53 am 01:53 Cloudy 38 3.3 14 -10 37 37 E 5 7 30.26 1025 10 16 0.00 0.00
2:53 am 02:53 Cloudy 39 3.9 15 -9.4 38 38 ESE 3 6 30.26 1025 10 16 0.00 0.00
3:53 am 03:53 Cloudy 39 3.9 17 -8.3 41 41 N 5 7 30.26 1025 10 16 0.00 0.00
4:53 am 04:53 Cloudy with Light Rain 38 3.3 20 -6.7 48 48 Calm 30.24 1024 10 16 0.00 0.03
5:53 am 05:53 Cloudy 36 2.2 29 -1.7 76 76 N 6 9 30.27 1025 10 16 0.02 0.51
6:53 am 06:53 Cloudy with Rain 35 1.7 31 -0.6 85 85 Calm 30.27 1025 4 6 0.06 1.52
7:53 am 07:53 Cloudy 35 1.7 32 0 89 89 Calm 30.27 1025 9 14 0.01 0.25
8:53 am 08:53 Cloudy 37 2.8 33 0.6 86 86 S 3 6 30.27 1025 9 14 0.00 0.03
9:53 am 09:53 Cloudy 38 3.3 35 1.7 89 89 WSW 5 7 30.28 1025 8 13 0.00 0.03
10:19 am 10:19 Cloudy 40 4.4 36 2.2 86 86 SW 3 6 30.27 1025 8 13 0.00 0.00
10:28 am 10:28 Cloudy 41 5 37 3 87 87 SW 3 6 30.27 1025 8 13 0.00 0.00
10:53 am 10:53 Cloudy 43 6.1 38 3.3 82 82 WSW 5 7 30.27 1025 8 13 0.00 0.00
11:53 am 11:53 Cloudy 45 7.2 39 3.9 80 80 WSW 5 7 30.26 1025 8 13 0.00 0.00
12:53 pm 12:53 Cloudy 46 7.8 40 4.4 79 79 VRB 3 6 30.22 1023 8 13 0.00 0.00
1:53 pm 13:53 Cloudy 49 9.4 41 5 74 74 VRB 6 9 30.18 1022 9 14 0.00 0.00
2:36 pm 14:36 Cloudy 50 10 43 6 76 76 VRB 3 6 30.15 1021 9 14 0.00 0.00
2:53 pm 14:53 Cloudy 50 10 42 5.6 74 74 Calm 30.17 1022 8 13 0.00 0.00
3:53 pm 15:53 Cloudy 52 11.1 43 6.1 72 72 WSW 6 9 30.16 1021 10 16 0.00 0.00
4:53 pm 16:53 Cloudy 51 10.6 43 6.1 74 74 W 5 7 30.16 1021 10 16 0.00 0.00
5:53 pm 17:53 Cloudy 51 10.6 43 6.1 74 74 WSW 5 7 30.17 1022 10 16 0.00 0.00
6:53 pm 18:53 Cloudy 50 10 44 6.7 80 80 NW 5 7 30.19 1022 10 16 0.00 0.00
7:53 pm 19:53 Cloudy 50 10 43 6.1 77 77 WNW 6 9 30.20 1023 10 16 0.00 0.00
8:53 pm 20:53 Cloudy 49 9.4 42 5.6 77 77 WNW 7 11 30.21 1023 10 16 0.00 0.00
9:53 pm 21:53 Cloudy 48 8.9 42 5.6 80 80 WNW 6 9 30.21 1023 10 16 0.00 0.00
9:58 pm 21:58 Cloudy 48 9 43 6 82 82 NW 5 7 30.21 1023 10 16 0.00 0.00
10:44 pm 22:44 Mostly Clear 46 8 41 5 82 82 NW 5 7 30.21 1023 10 16 0.00 0.00
10:53 pm 22:53 Clear 45 7.2 41 5 86 86 WNW 6 9 30.21 1023 10 16 0.00 0.00
11:53 pm 23:53 Clear 43 6.1 39 3.9 86 86 Calm 30.20 1023 7 11 0.00 0.00

Powered by AerisWeather